THORAD AGENA D DEB, 4603

Orbit data source: Space-Track

THORAD AGENA D DEB, 4603 is space debris in SSO originally from a launch on Wed, 08 Apr 1970 UTC launched from the Air Force Western Test Range (AFWTR). Debris objects in space refer to the collection of defunct objects orbiting the Earth. Examples of debris include non-operational satellites, rocket bodies, and fragments generated from explosions, collisions, or faulty payload assembly.

Loading next visibility...
Identifier
4603, 1970-025F
Orbit
SSO
Country
Flag of USUS
Related business
Manufacturer
Unknown
Mission
Spacecraft
Bus & Motor
Unknown
Mass
Unknown
Launch date (UTC)
1970-04-08 (56 years ago)
Launch vehicle
Unknown
Launch site
Air Force Western Test Range (AFWTR)
Object type
Payload
Rocket body
Debris
Shape & HBR
Unknown shape, 0.2 m
Radar Cross Section
Medium (>0.1 m² and <1 m²)

Expand to show TLE details & history
Last TLE update: 21 hours ago

TLE from 21 hours ago
0 THORAD AGENA D DEB
1 04603U 70025F   26208.22850797  .00000583  00000-0  52834-3 0  9996
2 04603  99.5069 314.5035 0023218 142.5683 247.2476 13.87877271798365
Epoch: 2026-07-27T05:29Z
TLE epoch observation values (Epoch: 2026-07-27T05:29:03.088Z)
Latitude
29.1732°
Longitude
-78.01087°
Altitude
946.24 km
Speed
7.378 km/s
True Right ascension
20h 36m 40s
True Declination
29° 01' 51"
Sunlit
Object was in full shadow at epoch
Visualization orbit readout
Latitude
Unknown
Longitude
Unknown
Altitude
Unknown
Speed
Unknown
Apparent Right ascension
Unknown
Apparent Declination
Unknown
Sunlit
N/A
Visualization observer readout
Local Sidereal Time
16:10:06
Azimuth
Unknown
Elevation
Unknown
Doppler factor
Unknown
Orbital elements
Apogee altitude
950.296 km
Perigee altitude
916.345 km
Semi-major axis
7,311.457 km
Eccentricity
0.00232
Inclination
99.5069°
RAAN
314.5035°
Arg. of periapsis
142.5683°
True anomaly
247.00252°
Mean anomaly
247.2476°
Eccentric anomaly
247.12503°
Mean motion
3.47166 °/min
Orbital period
103.7 mins
BSTAR
0.00052834
Loading maneuver chart data...
Computing Atmospheric mass density...

Documentation

Showing up to 5 results
|